Вернуться в каталог

COSMOS 970 DEB

АктивенLEO
NORAD 64995·DEBRIS·🇷🇺 Russia

Запущен Dec 21, 1977 с Baikonur Cosmodrome

Loading…

Ближайшие Пролёты (ближайшие 24 часа)

TLE

УстаревшееSource: Space-Track

Эпоха: Aug 27, 2026, 19:39 UTC

1 64995U 77121DG  26239.81933813 -.00000048  00000-0  37827-4 0  9993
2 64995  65.8039  24.2172 0115254  11.7565 348.6139 13.59157953588369

Отслеживайте COSMOS 970 DEB в реальном времени с AllMySat

Download on the App Store